Regional Weather Roundup
Issued by NWS

Home | Current Version | Previous Version | Graphics & Text | Print | Product List | Glossary On
Versions: 1 2 3 4 5 6 7 8 9 10 11 12 13 14 15 16 17 18 19 20 21 22 23 24 25 26 27 28 29 30 31 32 33 34 35 36 37 38 39 40 41 42 43 44 45 46 47 48 49 50
742
ASUS43 KMKX 292121
RWRWI

WISCONSIN REGIONAL WEATHER ROUNDUP
NATIONAL WEATHER SERVICE MILWAUKEE/SULLIVAN WI
400 PM CDT WED MAR 29 2017

NOTE: "FAIR" INDICATES FEW OR NO CLOUDS BELOW 12,000 FEET WITH NO
SIGNIFICANT WEATHER AND/OR OBSTRUCTIONS TO VISIBILITY.

WIZ001-002-006>008-014>016-023>028-292200-
NORTHWEST WISCONSIN

CITY           SKY/WX    TMP DP  RH WIND       PRES   REMARKS
SUPERIOR ARPT  CLOUDY    35  32  88 NE14G21   30.27F WCI  26
ASHLAND        CLOUDY    37  31  78 N10       30.27F WCI  30
HAYWARD        CLOUDY    52  28  39 SE6       30.20F
SIREN          CLOUDY    52  28  40 CALM      30.19F
CUMBERLAND     CLOUDY    46  32  57 SE7       30.19F
RICE LAKE      CLOUDY    49  32  51 SE8       30.21F
CHETEK         CLOUDY    48  33  55 E8        30.21F
LADYSMITH      CLOUDY    50  32  50 SE6       30.23F
EAU CLAIRE     CLOUDY    49  33  54 SE10      30.19F
MENOMONIE      CLOUDY    49  33  54 E6        30.20F
NEW RICHMOND   CLOUDY    49  32  52 SE6       30.19F
OSCEOLA        CLOUDY    50  34  55 SE7       30.22F
$$

WIZ003>005-009-010-017-018-292200-
NORTH CENTRAL WISCONSIN

CITY           SKY/WX    TMP DP  RH WIND       PRES   REMARKS
MANITOWISH WTR CLOUDY    47  29  49 E6        30.24F
ARBOR VITAE    CLOUDY    49  31  49 SE6       30.23F
WOODRUFF       CLOUDY    49  31  49 SE6       30.23F
RHINELANDER    CLOUDY    48  30  49 SE9       30.25F
EAGLE RIVER    CLOUDY    47  26  45 SE6       30.25F
LAND O LAKES   CLOUDY    47  28  48 E6        30.27F
PHILLIPS       CLOUDY    49  31  49 SE6       30.22F
TOMAHAWK       CLOUDY    46  30  53 SE5       30.24F
MEDFORD        CLOUDY    45  31  58 E9        30.21F
MERRILL        CLOUDY    46  31  54 SE10      30.24F
$$

WIZ029-030-035-036-043>047-292200-
CENTRAL WISCONSIN

CITY           SKY/WX    TMP DP  RH WIND       PRES   REMARKS
WAUSAU         CLOUDY    46  29  51 SE9       30.22F
MOSINEE        CLOUDY    45  30  57 E10       30.24F
MARSHFIELD     CLOUDY    45  31  58 E12       30.21F
STEVENS POINT  CLOUDY    43  29  58 E10       30.25F
WAUPACA        CLOUDY    47  33  58 NE10      30.26F
WAUTOMA        CLOUDY    45  36  70 NE13      30.24F
WISC RAPIDS    CLOUDY    46  33  60 E12       30.24F
CAMP DOUGLAS   CLOUDY    43  39  87 NE13      30.19F
$$

WIZ011>013-019>022-031-037>040-048>050-292200-
NORTHEAST WISCONSIN

CITY           SKY/WX    TMP DP  RH WIND       PRES   REMARKS
ANTIGO         CLOUDY    43  31  62 E9        30.25F
SHAWANO        CLOUDY    46  32  59 E8        30.29F
OCONTO         CLOUDY    40  29  64 NE8G16    30.30F WCI  35
STURGEON BAY   PTSUNNY   41  27  57 NE13      30.27F
GREEN BAY      CLOUDY    40  34  79 NE10      30.30F WCI  33
MANITOWOC      CLOUDY    39  33  79 N6        30.29F WCI  35
APPLETON       CLOUDY    43  30  61 NE12G17   30.26F
CLINTONVILLE   CLOUDY    45  28  53 E12       30.27F
OSHKOSH        CLOUDY    43  30  60 E10       30.25F
$$

WIZ032>034-041-042-053>061-292200-
SOUTHWEST WISCONSIN

CITY           SKY/WX    TMP DP  RH WIND       PRES   REMARKS
LA CROSSE      CLOUDY    47  37  68 CALM      30.18F
SPARTA         CLOUDY    43  39  85 NE10G20   30.20F
VIROQUA        CLOUDY    44  36  73 NE16      30.14F
BOSCOBEL       CLOUDY    48  36  63 E8        30.14F
PRAIRIE DU CHI LGT RAIN  46  34  64 NE12      30.11F
PLATTEVILLE    CLOUDY    47  36  67 NE18G26   30.07F
$$

WIZ056-057-062-063-064-067-068-292200-
SOUTH CENTRAL WISCONSIN

CITY           SKY/WX    TMP DP  RH WIND       PRES   REMARKS
REEDSBURG      CLOUDY    45  39  81 NE9       30.17F
BARABOO/DELLS  CLOUDY    45  38  77 NE10G16   30.17F
LONE ROCK      CLOUDY    48  36  63 E16G23    30.14F
MINERAL POINT  CLOUDY    46  36  66 NE13G24   30.10F
MADISON        CLOUDY    47  31  53 E16       30.17F
MIDDLETON      CLOUDY    48  35  60 E15       30.16F
WATERTOWN      CLOUDY    46  33  60 E14       30.18F
MONROE         CLOUDY    45  32  61 E17G25    30.10F
JANESVILLE     CLOUDY    48  34  57 E17       30.14F
$$

WIZ051-052-058>065-066-070>072-292200-
SOUTHEAST WISCONSIN

CITY           SKY/WX    TMP DP  RH WIND       PRES   REMARKS
MILWAUKEE      CLOUDY    40  35  83 NE15      30.22F WCI  32
WAUKESHA       CLOUDY    43  30  61 E10G17    30.22F
MILWAUKEE/TIMM CLOUDY    39  32  75 NE14      30.24F WCI  31
RACINE         CLOUDY    41  33  73 N14       30.22F
KENOSHA        CLOUDY    44  33  65 NE13      30.20F
FOND DU LAC    CLOUDY    46  36  68 E10       30.24F
SHEBOYGAN      CLOUDY    39  33  79 NE13      30.26F WCI  31
WEST BEND      CLOUDY    43  37  81 E12       30.22F
JUNEAU         CLOUDY    45  35  68 NE12      30.22F
$$

LSZ147-162-292200-
LAKE SUPERIOR

STATION/POSITION TIME  TEMP    WIND        PRES    WAVE
                       AIR SEA DIR/SP/G            HT/PER
                 (UTC) (F)     (DEG/KT/KT) (MB)    (FT/S)
DEVILS ISLAND    2100   34      60/ 17/ 19 1026.3F
PORT WING        2040   35      40/ 21/ 23 1024.7F
SAXON HARBOR     2040   35     300/  5/  6 1024.4F
$$

LMZ867-665-643>646-292200-
LAKE MICHIGAN

STATION/POSITION TIME  TEMP    WIND        PRES    WAVE
                       AIR SEA DIR/SP/G            HT/PER
                 (UTC) (F)     (DEG/KT/KT) (MB)    (FT/S)
CHAMBERS ISLAND  2040   37      50/  7/  9 1026.8F
NORTHPORT PIER   2040   35        CALM     1027.1F
KEWAUNEE LAKESHO 2054   36      30/ 12/ 16 1025.5F
SHEBOYGAN LAKESH 2100   35      10/ 15/ 16 1025.2F
PORT WASHINGTON  2030   38      40/ 16/ 17 1025.4F
MILWAUKEE LAKESH 2100   37      20/ 15/ 18   N/A
KENOSHA   LAKESH 2100   39      30/ 14/ 16 1022.7
$$

TC  - TEMPERATURE IN CELSIUS
VSB - VISIBILITY IN STATUTE MILES
WCI - WIND CHILL INDEX
HX  - HEAT INDEX





USA.gov is the U.S. government's official web portal to all federal, state and local government web resources and services.